Regional Weather Roundup
Issued by NWS

Home | Current Version | Previous Version | Text Only | Print | Product List | Glossary Off
Versions: 1 2 3 4 5 6 7 8 9 10 11 12 13 14 15 16 17 18 19 20 21 22 23 24 25 26 27 28 29 30 31 32 33 34 35 36 37 38 39 40 41 42 43 44 45 46 47 48 49 50

000
ASUS43 KLOT 220010
RWRIL

ILLINOIS REGIONAL WEATHER ROUNDUP
NATIONAL WEATHER SERVICE CHICAGO/ROMEOVILLE IL
600 PM CST FRI NOV 21 2014

NOTE: "FAIR" INDICATES FEW OR NO CLOUDS BELOW 12,000 FEET WITH NO
SIGNIFICANT WEATHER AND/OR OBSTRUCTIONS TO VISIBILITY.

* THESE STATIONS ARE NOT UNDER NWS QUALITY CONTROL. THEY ALSO MAY NOT
  REPORT WEATHER SUCH AS PRECIPITATION OR FOG.

ILZ001-002-007-009-015-016-024-220100-
NORTHWEST ILLINOIS

CITY           SKY/WX    TMP DP  RH WIND       PRES   REMARKS
MOLINE         CLOUDY    34   9  35 SE8       30.22F WCI  27
6HR MIN TEMP:  31; 6HR MAX TEMP:  36;

STERLING*      CLEAR     30   9  40 S5        30.26S WCI  25
SAVANNA*       PTCLDY    31   7  37 S9        30.24F WCI  23
$$

ILZ003-004-008-010-011-017-018-220100-
NORTH CENTRAL ILLINOIS

CITY           SKY/WX    TMP DP  RH WIND       PRES   REMARKS
ROCKFORD       MOCLDY    29   4  34 S12       30.27F WCI  19
6HR MIN TEMP:  28; 6HR MAX TEMP:  34;

FREEPORT*      CLEAR     26   8  47 S7        30.25F WCI  18
ROCHELLE*      CLEAR     26   8  45 S8        30.27F WCI  18
DE KALB*       CLEAR     27   4  37 S13       30.27F WCI  16
PERU*          PTCLDY    32   8  37 SE12      30.29F WCI  23
$$

ILZ005-006-012>014-019>023-220100-
NORTHEAST ILLINOIS

CITY           SKY/WX    TMP DP  RH WIND       PRES   REMARKS
CHICAGO-OHARE  PTCLDY    29   5  36 S10       30.30F WCI  20
6HR MIN TEMP:  28; 6HR MAX TEMP:  33;

CHICAGO-MIDWAY PTCLDY    32   5  32 S8        30.32F WCI  25
6HR MIN TEMP:  31; 6HR MAX TEMP:  35;

AURORA         CLEAR     28   4  35 SE9       30.30F WCI  19
6HR MIN TEMP:  28; 6HR MAX TEMP:  34;

LANSING*       CLEAR     28   9  43 S10       30.34S WCI  19
JOLIET*        CLEAR     29   6  38 SE7       30.31F WCI  22
WAUKEGAN       CLEAR     28   2  32 S9        30.28F WCI  19
6HR MIN TEMP:  28; 6HR MAX TEMP:  32;

DUPAGE AIRPORT CLEAR     28   5  37 S8        30.29F WCI  20
6HR MIN TEMP:  26; 6HR MAX TEMP:  33;

KANKAKEE*      CLEAR     28  12  50 SE9       30.34F WCI  20
WHEELING       CLEAR     30   4  33 S13       30.32S WCI  20
6HR MIN TEMP:  28; 6HR MAX TEMP:  33;

MORRIS*        CLEAR     27   8  43 SE8       30.30F WCI  19
ROMEOVILLE*    CLEAR     28   6  39 S9        30.31F WCI  19
NORTHERLY ISL    N/A     31   5  33 S12         N/A  WCI  22
$$

LMZ740>746-220100-
SOUTHERN LAKE MICHIGAN

STATION/POSITION SKY/WX   TEMP    WIND        PRES    VSBY  WAVE
                          AIR SEA DIR/SP/G                  HT/PER
                          (F)     (DEG/KT/KT) (MB)    (MI)  (FT/S)
SOUTHERN BUOY              35 43  190/ 21/ 25 1026.9F         5/ 5
WAUKEGAN HARBOR            32     200/ 14/ 15   N/A
HARRISON CRIB              32     180/ 21/ 25   N/A
BURNHAM HARBOR             31     160/ 11/ 13   N/A
CALUMET HARBOR             31     160/  8/ 14 1025.7F
MICHIGAN CITY              29     140/ 10/ 15   N/A
$$

ILZ025>027-034>036-040-047-049-050-058-095>099-220100-
WEST-CENTRAL ILLINOIS

CITY           SKY/WX    TMP DP  RH WIND       PRES   REMARKS
QUINCY         CLOUDY    37  19  48 SE12      30.22F WCI  29
GALESBURG*     CLOUDY    34  10  36 SE7       30.24S WCI  28
MACOMB*        CLOUDY    36  16  44 SE14      30.27S WCI  27
JACKSONVILLE*  CLOUDY    39  19  45 SE12      30.27F WCI  32
PITTSFIELD*    CLOUDY    38  22  53 SE10      30.25F WCI  30
$$

ILZ028>032-037-038-041>044-048-051>054-059>061-220100-
CENTRAL ILLINOIS

CITY           SKY/WX    TMP DP  RH WIND       PRES   REMARKS
PONTIAC        PTCLDY    31  13  47 SE10      30.32S WCI  22
BLOOMINGTON    MOCLDY    31  15  51 SE12      30.30F WCI  22
DECATUR        MOCLDY    34  17  50 SE10      30.32F WCI  26
PEORIA         CLOUDY    37  12  35 SE13      30.28F WCI  29
6HR MIN TEMP:  32; 6HR MAX TEMP:  38;

LACON*         PTCLDY    32   9  37 S8        30.28F WCI  25
LINCOLN*       CLOUDY    35  17  48 SE7       30.31F WCI  30
SPRINGFIELD    CLOUDY    37  16  42 S13       30.30S WCI  29
6HR MIN TEMP:  34; 6HR MAX TEMP:  39;

TAYLORVILLE    MOCLDY    34  19  55 SE8       30.31R WCI  27
$$

ILZ033-039-045-046-055>057-062-063-220100-
EAST-CENTRAL ILLINOIS

CITY           SKY/WX    TMP DP  RH WIND       PRES   REMARKS
CHAMPAIGN      MOCLDY    29  16  58 SE8       30.34S WCI  21
DANVILLE*      CLEAR     28  14  56 SE7       30.32F WCI  21
RANTOUL*       MOCLDY    31  15  51 SE7       30.34R WCI  24
MATTOON        PTCLDY    32  16  51 SE9       30.33F WCI  24
PARIS*         PTCLDY    28  19  70 SE5       30.36F WCI  22
$$

ILZ079-100>102-220100-
SOUTHWEST ILLINOIS

CITY           SKY/WX    TMP DP  RH WIND       PRES   REMARKS
BELLEVILLE     CLOUDY    40  24  54 E8        30.30F
CAHOKIA*       CLOUDY    41  23  48 SE8       30.30F
SPARTA*        CLOUDY    41  24  51 SE6       30.33R
$$

ILZ064>066-069>071-074>076-080>082-084>086-088>090-092>094-220100-
SOUTH-CENTRAL ILLINOIS

CITY           SKY/WX    TMP DP  RH WIND       PRES   REMARKS
CARBONDALE     CLOUDY    44  24  45 SE5       30.34R
6HR MIN TEMP:  41; 6HR MAX TEMP:  47;

CAIRO*         CLOUDY    47  32  56 E6        30.33S
EFFINGHAM*     MOCLDY    34  14  43 SE7       30.35R WCI  28
MARION         CLOUDY    45  25  45 SE6       30.34S
MT. VERNON     CLOUDY    39  19  45 E6        30.35S WCI  35
CENTRALIA*     CLOUDY    39  21  48 SE8       30.33R WCI  33
SALEM*           N/A     40  19  42 SE7       30.33S
METROPOLIS*    LGT RAIN  46  28  49 SE6       30.34R
$$

ILZ067-068-072-073-078-083-087-091-220100-
SOUTHEAST ILLINOIS

CITY           SKY/WX    TMP DP  RH WIND       PRES   REMARKS
LAWRENCEVILLE  PTCLDY    31  18  58 E9        30.38F WCI  23
FLORA*         CLEAR     36  21  55 SE7       30.36S WCI  30
FAIRFIELD*     CLOUDY    38  20  48 E6        30.35S WCI  34
HARRISBURG*    CLOUDY    41  25  51 E7        30.36R
ROBINSON*      FAIR      32  17  53 SE6       30.39S WCI  26
CARMI*         CLOUDY    40  28  60 E6        30.36F
$$

ABBREVIATIONS USED IN REMARKS
   TC - TEMPERATURE IN CELSIUS
  WCI - WIND CHILL INDEX
   HX - HEAT INDEX
  VSB - VISIBILITY
$$




USA.gov is the U.S. government's official web portal to all federal, state and local government web resources and services.